| time (UTC) | temp C | wind direction | speed KPH | gust KPH | rain 1hr cm | rain 24hr cm | rain mn cm | humidity % | barometer mb |
| 20260505221601 | 9 | 239 | 0.0 | 0.0 | 0.00 | 0.58 | 0.30 | 86 | 1015.2 |
| 20260505221355 | 9 | 239 | 0.0 | 0.0 | 0.00 | 0.58 | 0.30 | 86 | 1015.2 |
| 20260505220636 | 9 | 239 | 0.0 | 0.0 | 0.00 | 0.58 | 0.30 | 86 | 1015.2 |
| 20260505220249 | 9 | 239 | 0.0 | 0.0 | 0.00 | 0.61 | 0.30 | 86 | 1015.3 |
| 20260505220047 | 9 | 239 | 0.0 | 0.0 | 0.00 | 0.61 | 0.30 | 86 | 1015.2 |
| 20260505215503 | 9 | 239 | 0.0 | 0.0 | 0.00 | 0.61 | 0.30 | 86 | 1015.2 |
| 20260505215256 | 9 | 239 | 0.0 | 0.0 | 0.00 | 0.61 | 0.30 | 86 | 1015.2 |
| 20260505215052 | 9 | 239 | 0.0 | 0.0 | 0.00 | 0.61 | 0.30 | 86 | 1015.2 |
| 20260505214843 | 9 | 239 | 0.0 | 3.2 | 0.00 | 0.61 | 0.30 | 86 | 1015.2 |
| 20260505214449 | 9 | 239 | 0.0 | 0.0 | 0.00 | 0.61 | 0.30 | 86 | 1015.1 |
| 20260505214235 | 9 | 239 | 0.0 | 0.0 | 0.00 | 0.61 | 0.30 | 86 | 1015.1 |
| 20260505214034 | 9 | 239 | 0.0 | 0.0 | 0.00 | 0.61 | 0.30 | 86 | 1015.1 |
| 20260505213825 | 9 | 239 | 0.0 | 0.0 | 0.00 | 0.61 | 0.30 | 86 | 1015.0 |
| 20260505213619 | 9 | 239 | 0.0 | 0.0 | 0.00 | 0.61 | 0.30 | 86 | 1015.1 |
| 20260505213413 | 9 | 239 | 0.0 | 0.0 | 0.00 | 0.61 | 0.30 | 86 | 1015.1 |
| 20260505213200 | 9 | 239 | 0.0 | 0.0 | 0.00 | 0.61 | 0.30 | 85 | 1015.1 |
| 20260505212955 | 9 | 239 | 0.0 | 1.6 | 0.00 | 0.61 | 0.30 | 85 | 1015.2 |
| 20260505212600 | 9 | 239 | 0.0 | 0.0 | 0.00 | 0.61 | 0.30 | 85 | 1015.1 |
| 20260505212354 | 9 | 239 | 0.0 | 0.0 | 0.00 | 0.61 | 0.30 | 85 | 1015.1 |
| 20260505211814 | 9 | 239 | 0.0 | 0.0 | 0.00 | 0.61 | 0.30 | 85 | 1015.1 |
| 20260505211420 | 9 | 239 | 0.0 | 1.6 | 0.00 | 0.61 | 0.30 | 85 | 1015.1 |
| 20260505211218 | 9 | 239 | 0.0 | 0.0 | 0.00 | 0.61 | 0.30 | 85 | 1015.2 |
| 20260505210824 | 9 | 239 | 0.0 | 1.6 | 0.00 | 0.61 | 0.30 | 85 | 1015.1 |
| 20260505210435 | 9 | 239 | 0.0 | 0.0 | 0.00 | 0.61 | 0.30 | 85 | 1015.1 |
| 20260505210224 | 9 | 239 | 0.0 | 0.0 | 0.00 | 0.61 | 0.30 | 85 | 1015.0 |
| 20260505205500 | 10 | 239 | 0.0 | 0.0 | 0.00 | 0.61 | 0.30 | 85 | 1014.8 |
| 20260505205251 | 10 | 239 | 0.0 | 0.0 | 0.00 | 0.61 | 0.30 | 85 | 1014.8 |
| 20260505205040 | 10 | 239 | 0.0 | 0.0 | 0.00 | 0.61 | 0.30 | 85 | 1014.9 |
| 20260505204830 | 10 | 239 | 0.0 | 0.0 | 0.00 | 0.61 | 0.30 | 85 | 1014.9 |
| 20260505204624 | 10 | 239 | 0.0 | 4.8 | 0.00 | 0.61 | 0.30 | 85 | 1014.8 |
| 20260505204230 | 10 | 239 | 0.0 | 3.2 | 0.00 | 0.61 | 0.30 | 85 | 1014.8 |
| 20260505204019 | 10 | 238 | 0.0 | 0.0 | 0.00 | 0.61 | 0.30 | 85 | 1014.8 |
| 20260505203623 | 10 | 238 | 0.0 | 4.8 | 0.00 | 0.61 | 0.30 | 85 | 1014.7 |
| 20260505203419 | 10 | 244 | 0.0 | 0.0 | 0.00 | 0.61 | 0.30 | 85 | 1014.7 |
| 20260505203213 | 10 | 244 | 0.0 | 0.0 | 0.00 | 0.61 | 0.30 | 85 | 1014.7 |
| 20260505203004 | 10 | 244 | 0.0 | 3.2 | 0.00 | 0.61 | 0.30 | 85 | 1014.7 |
| 20260505202755 | 10 | 242 | 0.0 | 0.0 | 0.00 | 0.61 | 0.30 | 85 | 1014.8 |
| 20260505202546 | 10 | 242 | 0.0 | 0.0 | 0.00 | 0.61 | 0.30 | 85 | 1014.8 |
| 20260505202336 | 10 | 242 | 0.0 | 1.6 | 0.00 | 0.66 | 0.30 | 85 | 1014.8 |
| 20260505202127 | 10 | 242 | 0.0 | 0.0 | 0.00 | 0.66 | 0.30 | 85 | 1014.8 |
| 20260505201921 | 10 | 242 | 0.0 | 0.0 | 0.00 | 0.66 | 0.30 | 85 | 1014.7 |
| 20260505201713 | 10 | 242 | 0.0 | 3.2 | 0.00 | 0.66 | 0.30 | 85 | 1014.8 |
| 20260505201503 | 10 | 242 | 0.0 | 3.2 | 0.00 | 0.66 | 0.30 | 85 | 1014.7 |
| 20260505201250 | 10 | 242 | 0.0 | 3.2 | 0.00 | 0.66 | 0.30 | 85 | 1014.8 |
| 20260505201041 | 10 | 242 | 0.0 | 6.4 | 0.00 | 0.66 | 0.30 | 85 | 1014.8 |
| 20260505200829 | 10 | 196 | 0.0 | 4.8 | 0.00 | 0.66 | 0.30 | 85 | 1014.9 |
| 20260505200621 | 10 | 196 | 0.0 | 1.6 | 0.00 | 0.66 | 0.30 | 85 | 1014.8 |
| 20260505200229 | 10 | 196 | 0.0 | 0.0 | 0.00 | 0.66 | 0.30 | 85 | 1014.7 |
| 20260505200016 | 10 | 196 | 0.0 | 3.2 | 0.00 | 0.66 | 0.30 | 85 | 1014.8 |
| 20260505195807 | 10 | 196 | 0.0 | 6.4 | 0.00 | 0.66 | 0.30 | 86 | 1014.7 |
| 20260505195554 | 10 | 194 | 0.0 | 6.4 | 0.00 | 0.66 | 0.30 | 86 | 1014.8 |
| 20260505195020 | 10 | 219 | 0.0 | 0.0 | 0.00 | 0.66 | 0.30 | 86 | 1014.7 |
| 20260505194815 | 10 | 219 | 0.0 | 0.0 | 0.00 | 0.66 | 0.30 | 86 | 1014.7 |
| 20260505194612 | 10 | 219 | 0.0 | 0.0 | 0.00 | 0.66 | 0.30 | 86 | 1014.7 |
| 20260505194218 | 10 | 219 | 0.0 | 0.0 | 0.00 | 0.66 | 0.30 | 87 | 1014.9 |
| 20260505194007 | 10 | 219 | 0.0 | 0.0 | 0.00 | 0.66 | 0.30 | 87 | 1014.9 |
| 20260505193802 | 10 | 219 | 0.0 | 0.0 | 0.00 | 0.66 | 0.30 | 87 | 1014.8 |
| 20260505193558 | 10 | 219 | 0.0 | 0.0 | 0.00 | 0.66 | 0.30 | 88 | 1014.8 |
| 20260505193347 | 10 | 219 | 0.0 | 0.0 | 0.00 | 0.71 | 0.30 | 88 | 1014.7 |
| 20260505193139 | 10 | 219 | 0.0 | 0.0 | 0.00 | 0.71 | 0.30 | 88 | 1014.7 |
| 20260505192751 | 10 | 219 | 0.0 | 0.0 | 0.00 | 0.71 | 0.30 | 88 | 1014.7 |
| 20260505192547 | 10 | 219 | 0.0 | 0.0 | 0.00 | 0.71 | 0.30 | 89 | 1014.7 |
| 20260505192344 | 10 | 219 | 0.0 | 0.0 | 0.00 | 0.74 | 0.30 | 89 | 1014.6 |
| 20260505192138 | 10 | 219 | 0.0 | 0.0 | 0.00 | 0.74 | 0.30 | 89 | 1014.7 |
| 20260505191931 | 10 | 219 | 0.0 | 0.0 | 0.00 | 0.74 | 0.30 | 89 | 1014.6 |
| 20260505191720 | 10 | 219 | 0.0 | 1.6 | 0.00 | 0.74 | 0.30 | 89 | 1014.6 |
| 20260505191516 | 10 | 219 | 0.0 | 1.6 | 0.00 | 0.74 | 0.30 | 89 | 1014.6 |
| 20260505191308 | 10 | 219 | 0.0 | 0.0 | 0.00 | 0.74 | 0.30 | 89 | 1014.7 |
| 20260505190547 | 9 | 219 | 0.0 | 0.0 | 0.00 | 0.79 | 0.30 | 90 | 1014.7 |
| 20260505190334 | 9 | 219 | 0.0 | 0.0 | 0.00 | 0.79 | 0.30 | 90 | 1014.7 |
| 20260505185943 | 9 | 219 | 0.0 | 0.0 | 0.00 | 0.84 | 0.30 | 90 | 1014.6 |
| 20260505185738 | 9 | 219 | 0.0 | 0.0 | 0.00 | 0.84 | 0.30 | 90 | 1014.6 |
| 20260505185533 | 9 | 219 | 0.0 | 0.0 | 0.00 | 0.84 | 0.30 | 90 | 1014.6 |
| 20260505185322 | 9 | 219 | 0.0 | 0.0 | 0.00 | 0.84 | 0.30 | 90 | 1014.6 |
| 20260505185115 | 9 | 219 | 0.0 | 1.6 | 0.00 | 0.84 | 0.30 | 90 | 1014.5 |
| 20260505184910 | 9 | 219 | 0.0 | 0.0 | 0.00 | 0.86 | 0.30 | 90 | 1014.5 |
| 20260505184704 | 9 | 219 | 0.0 | 0.0 | 0.00 | 0.86 | 0.30 | 90 | 1014.4 |
| 20260505184503 | 9 | 219 | 0.0 | 0.0 | 0.00 | 0.86 | 0.30 | 90 | 1014.5 |
| 20260505184106 | 9 | 219 | 0.0 | 0.0 | 0.00 | 0.86 | 0.30 | 90 | 1014.5 |
| 20260505183859 | 9 | 219 | 0.0 | 0.0 | 0.00 | 0.86 | 0.30 | 90 | 1014.5 |
| 20260505183647 | 9 | 219 | 0.0 | 0.0 | 0.00 | 0.86 | 0.30 | 90 | 1014.5 |
| 20260505183257 | 9 | 219 | 0.0 | 0.0 | 0.00 | 0.86 | 0.30 | 90 | 1014.5 |
| 20260505183054 | 9 | 219 | 0.0 | 1.6 | 0.00 | 0.86 | 0.30 | 90 | 1014.5 |
| 20260505182842 | 9 | 219 | 0.0 | 0.0 | 0.00 | 0.86 | 0.30 | 90 | 1014.5 |
| 20260505182445 | 9 | 219 | 0.0 | 0.0 | 0.00 | 0.86 | 0.30 | 90 | 1014.4 |
| 20260505182243 | 9 | 219 | 0.0 | 4.8 | 0.00 | 0.86 | 0.30 | 90 | 1014.4 |
| 20260505182034 | 9 | 213 | 0.0 | 3.2 | 0.00 | 0.86 | 0.30 | 90 | 1014.5 |
| 20260505181828 | 9 | 213 | 0.0 | 3.2 | 0.00 | 0.86 | 0.30 | 90 | 1014.5 |
| 20260505181624 | 9 | 211 | 0.0 | 1.6 | 0.00 | 0.86 | 0.30 | 90 | 1014.5 |
| 20260505181415 | 9 | 211 | 0.0 | 1.6 | 0.00 | 0.86 | 0.30 | 90 | 1014.5 |
| 20260505181018 | 9 | 211 | 0.0 | 0.0 | 0.00 | 0.86 | 0.30 | 90 | 1014.4 |
| 20260505180806 | 9 | 211 | 0.0 | 0.0 | 0.00 | 0.86 | 0.30 | 90 | 1014.4 |
| 20260505180554 | 9 | 211 | 0.0 | 1.6 | 0.00 | 0.86 | 0.30 | 90 | 1014.3 |
| 20260505180348 | 9 | 211 | 0.0 | 1.6 | 0.00 | 0.86 | 0.30 | 91 | 1014.2 |
| 20260505175954 | 9 | 203 | 0.0 | 1.6 | 0.00 | 0.86 | 0.30 | 91 | 1014.2 |
| 20260505175746 | 9 | 202 | 0.0 | 0.0 | 0.00 | 0.86 | 0.30 | 91 | 1014.1 |
| 20260505175539 | 9 | 202 | 0.0 | 0.0 | 0.00 | 0.86 | 0.30 | 91 | 1014.1 |
| 20260505175334 | 9 | 202 | 0.0 | 0.0 | 0.00 | 0.86 | 0.30 | 91 | 1014.1 |
| 20260505175130 | 9 | 202 | 0.0 | 0.0 | 0.00 | 0.86 | 0.30 | 91 | 1014.1 |
| 20260505174926 | 9 | 202 | 0.0 | 0.0 | 0.00 | 0.86 | 0.30 | 91 | 1014.1 |
| 20260505174719 | 9 | 202 | 0.0 | 0.0 | 0.00 | 0.86 | 0.30 | 91 | 1014.1 |
| 20260505174140 | 8 | 202 | 0.0 | 0.0 | 0.00 | 0.86 | 0.30 | 91 | 1014.0 |
| 20260505173927 | 8 | 202 | 0.0 | 0.0 | 0.00 | 0.86 | 0.30 | 91 | 1014.0 |
| 20260505173722 | 8 | 202 | 0.0 | 0.0 | 0.00 | 0.86 | 0.30 | 91 | 1013.9 |
| 20260505173514 | 8 | 202 | 0.0 | 0.0 | 0.00 | 0.86 | 0.30 | 91 | 1013.9 |
| 20260505173119 | 8 | 202 | 0.0 | 0.0 | 0.00 | 0.86 | 0.30 | 91 | 1013.8 |
| 20260505172916 | 8 | 202 | 0.0 | 1.6 | 0.00 | 0.86 | 0.30 | 91 | 1013.8 |
| 20260505172703 | 8 | 202 | 0.0 | 1.6 | 0.00 | 0.86 | 0.30 | 91 | 1013.7 |
| 20260505172311 | 8 | 202 | 0.0 | 0.0 | 0.00 | 0.86 | 0.30 | 91 | 1013.8 |
| 20260505172103 | 8 | 202 | 0.0 | 0.0 | 0.00 | 0.86 | 0.30 | 92 | 1013.7 |
| 20260505171856 | 8 | 202 | 0.0 | 0.0 | 0.00 | 0.86 | 0.30 | 92 | 1013.7 |
| 20260505171502 | 8 | 202 | 0.0 | 0.0 | 0.00 | 0.86 | 0.30 | 91 | 1013.7 |
| 20260505171256 | 8 | 202 | 0.0 | 4.8 | 0.00 | 0.86 | 0.30 | 91 | 1013.6 |
| 20260505170904 | 8 | 202 | 0.0 | 4.8 | 0.00 | 0.86 | 0.30 | 91 | 1013.6 |
| 20260505170658 | 8 | 221 | 0.0 | 3.2 | 0.00 | 0.86 | 0.30 | 91 | 1013.6 |
| 20260505170456 | 9 | 221 | 0.0 | 0.0 | 0.00 | 0.86 | 0.30 | 91 | 1013.6 |
| 20260505170104 | 9 | 221 | 0.0 | 4.8 | 0.00 | 0.86 | 0.30 | 92 | 1013.6 |
| 20260505165856 | 9 | 223 | 0.0 | 4.8 | 0.00 | 0.86 | 0.30 | 92 | 1013.6 |
| 20260505165643 | 9 | 252 | 0.0 | 3.2 | 0.00 | 0.86 | 0.30 | 92 | 1013.5 |
| 20260505165441 | 8 | 252 | 0.0 | 1.6 | 0.00 | 0.86 | 0.30 | 92 | 1013.6 |
| 20260505165235 | 8 | 252 | 0.0 | 0.0 | 0.00 | 0.86 | 0.30 | 92 | 1013.6 |
| 20260505165031 | 8 | 252 | 0.0 | 0.0 | 0.00 | 0.86 | 0.30 | 92 | 1013.6 |
| 20260505164823 | 8 | 252 | 0.0 | 3.2 | 0.00 | 0.86 | 0.30 | 92 | 1013.6 |
| 20260505164611 | 8 | 254 | 0.0 | 1.6 | 0.00 | 0.86 | 0.30 | 92 | 1013.6 |
| 20260505164404 | 8 | 254 | 0.0 | 0.0 | 0.00 | 0.86 | 0.30 | 92 | 1013.5 |
| 20260505164156 | 8 | 254 | 0.0 | 0.0 | 0.00 | 0.86 | 0.30 | 92 | 1013.5 |
| 20260505163951 | 8 | 254 | 0.0 | 0.0 | 0.00 | 0.86 | 0.30 | 91 | 1013.5 |
| 20260505163414 | 8 | 254 | 0.0 | 0.0 | 0.00 | 0.86 | 0.30 | 92 | 1013.5 |
| 20260505163201 | 8 | 254 | 0.0 | 0.0 | 0.00 | 0.86 | 0.30 | 92 | 1013.6 |
| 20260505162957 | 8 | 254 | 0.0 | 1.6 | 0.00 | 0.86 | 0.30 | 92 | 1013.6 |
| 20260505162752 | 8 | 254 | 0.0 | 0.0 | 0.00 | 0.86 | 0.30 | 92 | 1013.6 |
| 20260505162549 | 8 | 254 | 0.0 | 0.0 | 0.00 | 0.86 | 0.30 | 91 | 1013.6 |
| 20260505162154 | 8 | 254 | 0.0 | 4.8 | 0.00 | 0.86 | 0.30 | 92 | 1013.5 |
| 20260505161944 | 8 | 253 | 0.0 | 3.2 | 0.00 | 0.86 | 0.30 | 92 | 1013.5 |
| 20260505161742 | 8 | 254 | 0.0 | 1.6 | 0.00 | 0.86 | 0.30 | 91 | 1013.5 |
| 20260505161539 | 8 | 254 | 0.0 | 1.6 | 0.00 | 0.86 | 0.30 | 91 | 1013.5 |
| 20260505161326 | 8 | 254 | 0.0 | 3.2 | 0.00 | 0.86 | 0.30 | 91 | 1013.5 |
| 20260505161123 | 8 | 254 | 0.0 | 3.2 | 0.00 | 0.86 | 0.30 | 91 | 1013.5 |
| 20260505160913 | 8 | 313 | 0.0 | 0.0 | 0.00 | 0.86 | 0.30 | 91 | 1013.4 |
| 20260505160707 | 8 | 313 | 0.0 | 0.0 | 0.00 | 0.86 | 0.30 | 92 | 1013.4 |
| 20260505160318 | 8 | 313 | 0.0 | 0.0 | 0.00 | 0.86 | 0.30 | 91 | 1013.4 |
| 20260505160113 | 8 | 313 | 0.0 | 1.6 | 0.00 | 0.86 | 0.30 | 91 | 1013.5 |
| 20260505153256 | 7 | 313 | 0.0 | 1.6 | 0.00 | 0.86 | 0.30 | 91 | 1013.3 |
| 20260505153050 | 7 | 313 | 0.0 | 0.0 | 0.00 | 0.86 | 0.30 | 91 | 1013.4 |
| 20260505152845 | 7 | 313 | 0.0 | 0.0 | 0.00 | 0.91 | 0.30 | 91 | 1013.4 |
| 20260505152637 | 7 | 313 | 0.0 | 0.0 | 0.00 | 0.91 | 0.30 | 91 | 1013.4 |
| 20260505152431 | 7 | 313 | 0.0 | 0.0 | 0.00 | 0.91 | 0.30 | 91 | 1013.4 |
| 20260505152034 | 7 | 313 | 0.0 | 0.0 | 0.00 | 0.91 | 0.30 | 91 | 1013.4 |
| 20260505151827 | 7 | 313 | 0.0 | 0.0 | 0.00 | 0.91 | 0.30 | 91 | 1013.4 |
| 20260505151436 | 7 | 313 | 0.0 | 0.0 | 0.00 | 0.91 | 0.30 | 91 | 1013.4 |
| 20260505151225 | 7 | 313 | 0.0 | 0.0 | 0.00 | 0.91 | 0.30 | 91 | 1013.4 |
| 20260505151013 | 7 | 313 | 0.0 | 0.0 | 0.00 | 0.91 | 0.30 | 91 | 1013.3 |
| 20260505150625 | 7 | 313 | 0.0 | 0.0 | 0.00 | 0.91 | 0.30 | 91 | 1013.4 |
| 20260505150235 | 7 | 313 | 0.0 | 0.0 | 0.00 | 0.91 | 0.30 | 91 | 1013.3 |
| 20260505140608 | 7 | 316 | 0.0 | 0.0 | 0.00 | 0.94 | 0.30 | 91 | 1013.0 |
| 20260505140406 | 7 | 315 | 0.0 | 0.0 | 0.00 | 0.94 | 0.30 | 91 | 1012.8 |
| 20260505140204 | 7 | 315 | 0.0 | 0.0 | 0.00 | 0.94 | 0.30 | 91 | 1012.8 |
| 20260505130213 | 7 | 315 | 0.0 | 0.0 | 0.13 | 1.02 | 0.28 | 91 | 1012.6 |
| 20260505125019 | 7 | 315 | 0.0 | 0.0 | 0.13 | 0.99 | 0.25 | 90 | 1012.6 |
| 20260505124630 | 7 | 315 | 0.0 | 0.0 | 0.13 | 0.99 | 0.25 | 90 | 1012.5 |
| 20260505124427 | 7 | 315 | 0.0 | 0.0 | 0.15 | 0.97 | 0.23 | 90 | 1012.5 |
| 20260505124225 | 7 | 315 | 0.0 | 0.0 | 0.18 | 0.97 | 0.23 | 90 | 1012.5 |
| 20260505124015 | 7 | 315 | 0.0 | 0.0 | 0.23 | 0.97 | 0.23 | 90 | 1012.5 |
| 20260505123808 | 7 | 315 | 0.0 | 0.0 | 0.28 | 0.97 | 0.23 | 90 | 1012.5 |
| 20260505123558 | 7 | 316 | 0.0 | 0.0 | 0.28 | 0.97 | 0.23 | 90 | 1012.5 |
| 20260505123345 | 7 | 315 | 0.0 | 0.0 | 0.25 | 0.94 | 0.20 | 90 | 1012.5 |
| 20260505123132 | 7 | 315 | 0.0 | 0.0 | 0.25 | 0.94 | 0.20 | 90 | 1012.5 |
| 20260505122927 | 7 | 316 | 0.0 | 0.0 | 0.25 | 0.91 | 0.20 | 90 | 1012.5 |
| 20260505122723 | 7 | 316 | 0.0 | 0.0 | 0.23 | 0.91 | 0.18 | 90 | 1012.5 |
| 20260505122512 | 7 | 316 | 0.0 | 0.0 | 0.23 | 0.91 | 0.18 | 90 | 1012.5 |
| 20260505122300 | 7 | 315 | 0.0 | 0.0 | 0.23 | 0.89 | 0.18 | 90 | 1012.5 |
| 20260505121904 | 7 | 316 | 0.0 | 0.0 | 0.10 | 0.89 | 0.15 | 90 | 1012.4 |
| 20260505121703 | 7 | 316 | 0.0 | 0.0 | 0.10 | 0.89 | 0.15 | 90 | 1012.3 |
| 20260505121453 | 7 | 316 | 0.0 | 0.0 | 0.10 | 0.86 | 0.13 | 90 | 1012.4 |
| 20260505121251 | 7 | 315 | 0.0 | 0.0 | 0.10 | 0.86 | 0.13 | 90 | 1012.3 |
| 20260505121049 | 7 | 316 | 0.0 | 0.0 | 0.10 | 0.86 | 0.13 | 90 | 1012.4 |
| 20260505120840 | 7 | 316 | 0.0 | 0.0 | 0.10 | 0.86 | 0.13 | 90 | 1012.4 |
| 20260505120628 | 7 | 316 | 0.0 | 0.0 | 0.10 | 0.86 | 0.13 | 90 | 1012.4 |
| 20260505120424 | 7 | 315 | 0.0 | 0.0 | 0.10 | 0.86 | 0.13 | 90 | 1012.4 |
| 20260505120222 | 7 | 315 | 0.0 | 0.0 | 0.10 | 0.86 | 0.13 | 90 | 1012.4 |
| 20260505120015 | 7 | 316 | 0.0 | 0.0 | 0.10 | 0.84 | 0.10 | 90 | 1012.4 |
| 20260505115443 | 7 | 315 | 0.0 | 0.0 | 0.13 | 0.84 | 0.10 | 90 | 1012.5 |
| 20260505114908 | 7 | 316 | 0.0 | 0.0 | 0.13 | 0.86 | 0.10 | 90 | 1012.5 |
| 20260505114703 | 7 | 315 | 0.0 | 0.0 | 0.13 | 0.86 | 0.10 | 90 | 1012.5 |
| 20260505114132 | 7 | 315 | 0.0 | 0.0 | 0.10 | 0.86 | 0.08 | 90 | 1012.5 |
| 20260505113745 | 7 | 315 | 0.0 | 0.0 | 0.10 | 0.89 | 0.08 | 90 | 1012.5 |
| 20260505113541 | 7 | 315 | 0.0 | 0.0 | 0.10 | 0.89 | 0.08 | 90 | 1012.5 |
| 20260505113333 | 7 | 316 | 0.0 | 0.0 | 0.00 | 0.86 | 0.05 | 90 | 1012.5 |
| 20260505113121 | 7 | 316 | 0.0 | 0.0 | 0.00 | 0.86 | 0.05 | 90 | 1012.5 |
| 20260505112911 | 7 | 316 | 0.0 | 0.0 | 0.00 | 0.86 | 0.05 | 90 | 1012.5 |
| 20260505112707 | 7 | 316 | 0.0 | 0.0 | 0.00 | 0.86 | 0.05 | 90 | 1012.5 |
| 20260505112504 | 7 | 315 | 0.0 | 0.0 | 0.00 | 0.91 | 0.05 | 90 | 1012.5 |
| 20260505112300 | 7 | 315 | 0.0 | 0.0 | 0.00 | 0.91 | 0.05 | 90 | 1012.5 |
| 20260505112049 | 7 | 316 | 0.0 | 0.0 | 0.00 | 0.91 | 0.05 | 90 | 1012.5 |
| 20260505111838 | 7 | 316 | 0.0 | 0.0 | 0.00 | 0.91 | 0.05 | 90 | 1012.5 |
| 20260505111446 | 7 | 316 | 0.0 | 0.0 | 0.00 | 0.91 | 0.03 | 90 | 1012.5 |
| 20260505111235 | 7 | 316 | 0.0 | 0.0 | 0.00 | 0.91 | 0.03 | 90 | 1012.5 |
| 20260505111027 | 7 | 315 | 0.0 | 0.0 | 0.00 | 0.94 | 0.03 | 90 | 1012.6 |
| 20260505110633 | 7 | 315 | 0.0 | 0.0 | 0.00 | 0.94 | 0.03 | 90 | 1012.6 |
| 20260505110427 | 7 | 316 | 0.0 | 0.0 | 0.00 | 0.94 | 0.03 | 90 | 1012.5 |
| 20260505110219 | 7 | 316 | 0.0 | 0.0 | 0.00 | 0.97 | 0.03 | 90 | 1012.6 |
| 20260505102044 | 7 | 316 | 0.0 | 0.0 | 0.00 | 0.94 | 0.00 | 90 | 1012.6 |
| 20260505101841 | 7 | 316 | 0.0 | 0.0 | 0.00 | 0.94 | 0.00 | 90 | 1012.6 |
| 20260505101640 | 7 | 315 | 0.0 | 0.0 | 0.00 | 0.94 | 0.00 | 90 | 1012.6 |
| 20260505101431 | 7 | 315 | 0.0 | 0.0 | 0.00 | 0.94 | 0.00 | 90 | 1012.6 |
| 20260505101221 | 7 | 315 | 0.0 | 0.0 | 0.00 | 0.94 | 0.00 | 90 | 1012.6 |
| 20260505101009 | 7 | 315 | 0.0 | 0.0 | 0.00 | 0.94 | 0.00 | 90 | 1012.6 |
| 20260505100804 | 7 | 316 | 0.0 | 0.0 | 0.00 | 0.94 | 0.00 | 90 | 1012.6 |
| 20260505100553 | 7 | 315 | 0.0 | 0.0 | 0.00 | 0.94 | 0.00 | 90 | 1012.6 |
| 20260505100344 | 7 | 316 | 0.0 | 0.0 | 0.00 | 0.94 | 0.00 | 90 | 1012.6 |
| 20260505100137 | 7 | 315 | 0.0 | 0.0 | 0.00 | 0.94 | 0.00 | 90 | 1012.6 |
| 20260505095934 | 7 | 315 | 0.0 | 0.0 | 0.00 | 0.94 | 0.00 | 90 | 1012.6 |
| 20260505095724 | 7 | 316 | 0.0 | 0.0 | 0.00 | 0.94 | 0.00 | 90 | 1012.6 |
| 20260505095512 | 7 | 316 | 0.0 | 0.0 | 0.00 | 0.94 | 0.00 | 90 | 1012.6 |
| 20260505095304 | 7 | 316 | 0.0 | 0.0 | 0.00 | 0.94 | 0.00 | 90 | 1012.7 |
| 20260505095051 | 7 | 315 | 0.0 | 0.0 | 0.00 | 0.94 | 0.00 | 90 | 1012.6 |
| 20260505094849 | 7 | 315 | 0.0 | 0.0 | 0.00 | 0.94 | 0.00 | 90 | 1012.6 |
| 20260505094451 | 7 | 315 | 0.0 | 0.0 | 0.00 | 0.94 | 0.00 | 90 | 1012.7 |
| 20260505094246 | 7 | 316 | 0.0 | 0.0 | 0.00 | 0.94 | 0.00 | 90 | 1012.7 |
| 20260505093856 | 7 | 315 | 0.0 | 0.0 | 0.00 | 0.94 | 0.00 | 90 | 1012.7 |
| 20260505093654 | 7 | 315 | 0.0 | 0.0 | 0.00 | 0.94 | 0.00 | 90 | 1012.6 |
| 20260505093120 | 7 | 315 | 0.0 | 0.0 | 0.00 | 0.94 | 0.00 | 90 | 1012.6 |
| 20260505092917 | 7 | 315 | 0.0 | 0.0 | 0.00 | 0.94 | 0.00 | 90 | 1012.6 |
| 20260505092709 | 7 | 316 | 0.0 | 0.0 | 0.00 | 0.94 | 0.00 | 90 | 1012.7 |
| 20260505092501 | 7 | 315 | 0.0 | 0.0 | 0.00 | 0.94 | 0.00 | 90 | 1012.8 |
| 20260505092105 | 7 | 315 | 0.0 | 0.0 | 0.00 | 0.94 | 0.00 | 90 | 1012.8 |
| 20260505091859 | 7 | 316 | 0.0 | 0.0 | 0.00 | 0.94 | 0.00 | 90 | 1012.8 |
| 20260505091649 | 7 | 315 | 0.0 | 0.0 | 0.00 | 0.94 | 0.00 | 90 | 1012.8 |
| 20260505091256 | 7 | 315 | 0.0 | 0.0 | 0.00 | 0.94 | 0.00 | 90 | 1012.8 |
| 20260505090909 | 7 | 315 | 0.0 | 0.0 | 0.00 | 0.94 | 0.00 | 90 | 1013.0 |
| 20260505090657 | 7 | 315 | 0.0 | 0.0 | 0.00 | 0.94 | 0.00 | 90 | 1012.9 |
| 20260505090444 | 7 | 315 | 0.0 | 0.0 | 0.00 | 0.94 | 0.00 | 90 | 1012.9 |
| 20260505090242 | 7 | 315 | 0.0 | 0.0 | 0.00 | 0.94 | 0.00 | 90 | 1012.9 |
| 20260505090032 | 7 | 315 | 0.0 | 0.0 | 0.00 | 0.94 | 0.00 | 90 | 1012.9 |
| 20260505085636 | 7 | 316 | 0.0 | 0.0 | 0.00 | 0.94 | 0.00 | 90 | 1012.8 |
| 20260505085101 | 7 | 316 | 0.0 | 0.0 | 0.00 | 0.94 | 0.00 | 90 | 1012.9 |
| 20260505084849 | 7 | 316 | 0.0 | 0.0 | 0.00 | 0.94 | 0.00 | 90 | 1012.9 |
| 20260505084644 | 7 | 315 | 0.0 | 0.0 | 0.00 | 0.94 | 0.00 | 90 | 1013.0 |
| 20260505084440 | 7 | 315 | 0.0 | 0.0 | 0.00 | 0.94 | 0.00 | 90 | 1013.0 |
| 20260505084229 | 7 | 315 | 0.0 | 0.0 | 0.00 | 0.94 | 0.00 | 90 | 1013.0 |
| 20260505084025 | 7 | 315 | 0.0 | 0.0 | 0.00 | 0.94 | 0.00 | 90 | 1013.0 |
| 20260505083817 | 7 | 315 | 0.0 | 0.0 | 0.00 | 0.94 | 0.00 | 90 | 1013.1 |
| 20260505083607 | 7 | 316 | 0.0 | 0.0 | 0.00 | 0.94 | 0.00 | 90 | 1013.1 |
| 20260505083403 | 7 | 315 | 0.0 | 0.0 | 0.00 | 0.94 | 0.00 | 90 | 1013.2 |
| 20260505083017 | 7 | 315 | 0.0 | 0.0 | 0.00 | 0.94 | 0.00 | 90 | 1013.2 |
| 20260505082815 | 7 | 316 | 0.0 | 0.0 | 0.00 | 0.94 | 0.00 | 90 | 1013.3 |
| 20260505082611 | 7 | 315 | 0.0 | 0.0 | 0.00 | 0.94 | 0.00 | 90 | 1013.2 |
| 20260505082408 | 7 | 315 | 0.0 | 0.0 | 0.00 | 0.94 | 0.00 | 90 | 1013.2 |
| 20260505082201 | 7 | 316 | 0.0 | 0.0 | 0.00 | 0.94 | 0.00 | 90 | 1013.1 |
| 20260505081804 | 7 | 315 | 0.0 | 0.0 | 0.00 | 0.94 | 0.00 | 90 | 1013.2 |
| 20260505081600 | 7 | 315 | 0.0 | 0.0 | 0.00 | 0.94 | 0.00 | 90 | 1013.2 |
| 20260505081209 | 7 | 316 | 0.0 | 0.0 | 0.00 | 0.94 | 0.00 | 90 | 1013.2 |
| 20260505081004 | 7 | 316 | 0.0 | 0.0 | 0.00 | 0.94 | 0.00 | 90 | 1013.2 |
| 20260505080752 | 7 | 315 | 0.0 | 0.0 | 0.00 | 0.94 | 0.00 | 90 | 1013.2 |
| 20260505080545 | 7 | 315 | 0.0 | 0.0 | 0.00 | 0.94 | 0.00 | 90 | 1013.2 |
| 20260505080334 | 7 | 316 | 0.0 | 0.0 | 0.00 | 0.94 | 0.00 | 90 | 1013.2 |
| 20260505075803 | 7 | 315 | 0.0 | 0.0 | 0.00 | 0.94 | 0.00 | 90 | 1013.3 |
| 20260505075559 | 7 | 315 | 0.0 | 0.0 | 0.00 | 0.94 | 0.00 | 90 | 1013.2 |
| 20260505075349 | 7 | 315 | 0.0 | 0.0 | 0.00 | 0.94 | 0.00 | 90 | 1013.2 |
| 20260505075143 | 7 | 316 | 0.0 | 0.0 | 0.00 | 0.94 | 0.00 | 90 | 1013.2 |
| 20260505074749 | 7 | 316 | 0.0 | 0.0 | 0.00 | 0.94 | 0.00 | 90 | 1013.3 |
| 20260505074545 | 7 | 316 | 0.0 | 0.0 | 0.00 | 0.94 | 0.00 | 90 | 1013.3 |
| 20260505074336 | 7 | 315 | 0.0 | 0.0 | 0.00 | 0.94 | 0.00 | 90 | 1013.3 |
| 20260505074126 | 7 | 316 | 0.0 | 0.0 | 0.00 | 0.94 | 0.00 | 90 | 1013.3 |
| 20260505073732 | 7 | 316 | 0.0 | 0.0 | 0.00 | 0.94 | 0.00 | 90 | 1013.3 |
| 20260505073524 | 7 | 315 | 0.0 | 0.0 | 0.00 | 0.94 | 0.00 | 90 | 1013.3 |
| 20260505073316 | 7 | 315 | 0.0 | 0.0 | 0.00 | 0.94 | 0.00 | 90 | 1013.3 |
| 20260505073105 | 7 | 315 | 0.0 | 0.0 | 0.00 | 0.94 | 0.00 | 90 | 1013.3 |
| 20260505072710 | 7 | 315 | 0.0 | 0.0 | 0.00 | 0.94 | 0.00 | 90 | 1013.3 |
| 20260505072501 | 7 | 315 | 0.0 | 0.0 | 0.00 | 0.94 | 0.00 | 90 | 1013.2 |
| 20260505072248 | 7 | 315 | 0.0 | 0.0 | 0.00 | 0.94 | 0.00 | 90 | 1013.2 |
| 20260505071341 | 7 | 316 | 0.0 | 0.0 | 0.00 | 0.94 | 0.00 | 90 | 1013.2 |
| 20260505071134 | 7 | 315 | 0.0 | 0.0 | 0.00 | 0.94 | 0.00 | 90 | 1013.2 |
| 20260505070931 | 7 | 316 | 0.0 | 0.0 | 0.00 | 0.94 | 0.00 | 90 | 1013.2 |
| 20260505070537 | 7 | 315 | 0.0 | 0.0 | 0.00 | 0.94 | 0.00 | 90 | 1013.2 |
| 20260505070330 | 7 | 315 | 0.0 | 0.0 | 0.00 | 0.94 | 0.00 | 90 | 1013.1 |
| 20260505070119 | 7 | 316 | 0.0 | 0.0 | 0.00 | 0.94 | 0.00 | 90 | 1013.1 |
| 20260505065909 | 7 | 316 | 0.0 | 0.0 | 0.00 | 0.94 | 0.94 | 90 | 1013.1 |
| 20260505065657 | 7 | 315 | 0.0 | 0.0 | 0.00 | 0.94 | 0.94 | 90 | 1013.1 |
| 20260505065456 | 7 | 315 | 0.0 | 0.0 | 0.00 | 0.94 | 0.94 | 90 | 1013.1 |
| 20260505065249 | 7 | 315 | 0.0 | 0.0 | 0.00 | 0.94 | 0.94 | 90 | 1013.1 |
| 20260505065039 | 7 | 316 | 0.0 | 0.0 | 0.00 | 0.94 | 0.94 | 90 | 1013.1 |
| 20260505064835 | 7 | 315 | 0.0 | 0.0 | 0.00 | 0.94 | 0.94 | 90 | 1013.1 |
| 20260505064623 | 7 | 315 | 0.0 | 0.0 | 0.00 | 0.94 | 0.94 | 90 | 1013.0 |
| 20260505064420 | 7 | 315 | 0.0 | 0.0 | 0.00 | 0.94 | 0.94 | 90 | 1013.1 |
| 20260505064209 | 7 | 316 | 0.0 | 0.0 | 0.00 | 0.94 | 0.94 | 90 | 1013.1 |
| 20260505063959 | 7 | 315 | 0.0 | 0.0 | 0.00 | 0.94 | 0.94 | 90 | 1013.1 |
| 20260505063751 | 7 | 315 | 0.0 | 0.0 | 0.00 | 0.94 | 0.94 | 90 | 1013.1 |
| 20260505063358 | 7 | 315 | 0.0 | 0.0 | 0.00 | 0.94 | 0.94 | 90 | 1013.0 |
| 20260505063153 | 7 | 315 | 0.0 | 0.0 | 0.00 | 0.94 | 0.94 | 90 | 1013.1 |
| 20260505062944 | 7 | 315 | 0.0 | 0.0 | 0.00 | 0.94 | 0.94 | 90 | 1013.0 |
| 20260505062733 | 7 | 315 | 0.0 | 0.0 | 0.00 | 0.94 | 0.94 | 90 | 1013.0 |
| 20260505062527 | 7 | 316 | 0.0 | 0.0 | 0.00 | 0.94 | 0.94 | 90 | 1013.0 |
| 20260505062319 | 7 | 315 | 0.0 | 0.0 | 0.00 | 0.94 | 0.94 | 90 | 1013.0 |
| 20260505062114 | 7 | 315 | 0.0 | 0.0 | 0.00 | 0.94 | 0.94 | 90 | 1013.0 |
| 20260505061720 | 7 | 315 | 0.0 | 0.0 | 0.00 | 0.94 | 0.94 | 90 | 1013.0 |
| 20260505061509 | 7 | 315 | 0.0 | 0.0 | 0.00 | 0.94 | 0.94 | 90 | 1013.0 |
| 20260505061300 | 7 | 315 | 0.0 | 0.0 | 0.00 | 0.94 | 0.94 | 90 | 1013.0 |
| 20260505061059 | 7 | 316 | 0.0 | 0.0 | 0.00 | 0.94 | 0.94 | 90 | 1013.0 |
| 20260505060847 | 7 | 316 | 0.0 | 0.0 | 0.00 | 0.94 | 0.94 | 90 | 1013.0 |
| 20260505060645 | 8 | 315 | 0.0 | 0.0 | 0.00 | 0.94 | 0.94 | 90 | 1013.0 |
| 20260505060442 | 7 | 315 | 0.0 | 0.0 | 0.00 | 0.94 | 0.94 | 90 | 1013.1 |
| 20260505060233 | 8 | 315 | 0.0 | 0.0 | 0.00 | 0.94 | 0.94 | 90 | 1013.1 |
| 20260505055701 | 8 | 315 | 0.0 | 0.0 | 0.00 | 0.94 | 0.94 | 90 | 1013.1 |
| 20260505055457 | 8 | 315 | 0.0 | 0.0 | 0.00 | 0.94 | 0.94 | 90 | 1013.1 |
| 20260505055255 | 8 | 316 | 0.0 | 0.0 | 0.00 | 0.94 | 0.94 | 90 | 1013.1 |
| 20260505054905 | 8 | 315 | 0.0 | 0.0 | 0.00 | 0.94 | 0.94 | 90 | 1013.1 |
| 20260505054703 | 8 | 316 | 0.0 | 0.0 | 0.00 | 0.94 | 0.94 | 90 | 1013.1 |
| 20260505054456 | 8 | 316 | 0.0 | 0.0 | 0.00 | 0.94 | 0.94 | 90 | 1013.2 |
| 20260505054244 | 8 | 315 | 0.0 | 0.0 | 0.00 | 0.94 | 0.94 | 90 | 1013.2 |
| 20260505054033 | 8 | 315 | 0.0 | 0.0 | 0.00 | 0.94 | 0.94 | 90 | 1013.3 |
| 20260505053828 | 8 | 315 | 0.0 | 0.0 | 0.00 | 0.94 | 0.94 | 90 | 1013.2 |
| 20260505053625 | 8 | 316 | 0.0 | 0.0 | 0.00 | 0.94 | 0.94 | 90 | 1013.3 |
| 20260505053414 | 8 | 315 | 0.0 | 0.0 | 0.00 | 0.94 | 0.94 | 90 | 1013.3 |
| 20260505053024 | 8 | 316 | 0.0 | 0.0 | 0.00 | 0.94 | 0.94 | 90 | 1013.4 |
| 20260505052811 | 8 | 316 | 0.0 | 0.0 | 0.00 | 0.94 | 0.94 | 90 | 1013.4 |
| 20260505052606 | 8 | 316 | 0.0 | 0.0 | 0.00 | 0.94 | 0.94 | 90 | 1013.5 |
| 20260505052402 | 8 | 316 | 0.0 | 0.0 | 0.00 | 0.94 | 0.94 | 90 | 1013.4 |
| 20260505052152 | 8 | 315 | 0.0 | 0.0 | 0.00 | 0.94 | 0.94 | 90 | 1013.4 |
| 20260505051940 | 8 | 315 | 0.0 | 0.0 | 0.00 | 0.94 | 0.94 | 90 | 1013.4 |
| 20260505051737 | 8 | 315 | 0.0 | 0.0 | 0.00 | 0.94 | 0.94 | 90 | 1013.4 |
| 20260505051529 | 8 | 315 | 0.0 | 0.0 | 0.00 | 0.94 | 0.94 | 90 | 1013.4 |
| 20260505051324 | 8 | 316 | 0.0 | 0.0 | 0.00 | 0.94 | 0.94 | 90 | 1013.4 |
| 20260505050935 | 8 | 316 | 0.0 | 0.0 | 0.00 | 0.94 | 0.94 | 90 | 1013.5 |
| 20260505050725 | 8 | 315 | 0.0 | 0.0 | 0.00 | 0.94 | 0.94 | 90 | 1013.5 |
| 20260505050513 | 8 | 315 | 0.0 | 0.0 | 0.00 | 0.94 | 0.94 | 90 | 1013.5 |
| 20260505050309 | 8 | 315 | 0.0 | 0.0 | 0.00 | 0.94 | 0.94 | 90 | 1013.5 |
| 20260505050104 | 8 | 315 | 0.0 | 0.0 | 0.00 | 0.94 | 0.94 | 90 | 1013.4 |
| 20260505041710 | 8 | 315 | 0.0 | 0.0 | 0.00 | 0.94 | 0.94 | 90 | 1013.2 |
| 20260505041458 | 8 | 316 | 0.0 | 0.0 | 0.00 | 0.94 | 0.94 | 90 | 1013.2 |
| 20260505041249 | 8 | 315 | 0.0 | 0.0 | 0.00 | 0.94 | 0.94 | 90 | 1013.1 |
| 20260505041042 | 8 | 315 | 0.0 | 0.0 | 0.00 | 0.94 | 0.94 | 90 | 1013.1 |
| 20260505040836 | 8 | 315 | 0.0 | 0.0 | 0.00 | 0.94 | 0.94 | 90 | 1013.1 |
| 20260505040625 | 8 | 315 | 0.0 | 0.0 | 0.00 | 0.94 | 0.94 | 90 | 1013.1 |
| 20260505040415 | 8 | 315 | 0.0 | 0.0 | 0.00 | 0.94 | 0.94 | 90 | 1013.0 |
| 20260505040021 | 8 | 315 | 0.0 | 0.0 | 0.00 | 0.94 | 0.94 | 90 | 1012.9 |
| 20260505035808 | 8 | 315 | 0.0 | 0.0 | 0.00 | 0.94 | 0.94 | 90 | 1012.9 |
| 20260505035601 | 8 | 315 | 0.0 | 0.0 | 0.00 | 0.91 | 0.91 | 90 | 1012.9 |
| 20260505035207 | 8 | 315 | 0.0 | 0.0 | 0.00 | 0.91 | 0.91 | 90 | 1012.8 |
| 20260505034954 | 8 | 315 | 0.0 | 0.0 | 0.00 | 0.91 | 0.91 | 90 | 1012.8 |
| 20260505034748 | 8 | 316 | 0.0 | 0.0 | 0.00 | 0.91 | 0.91 | 90 | 1012.8 |
| 20260505034543 | 8 | 315 | 0.0 | 0.0 | 0.00 | 0.91 | 0.91 | 90 | 1012.7 |
| 20260505034338 | 8 | 315 | 0.0 | 0.0 | 0.00 | 0.91 | 0.91 | 90 | 1012.7 |
| 20260505034134 | 8 | 316 | 0.0 | 0.0 | 0.00 | 0.91 | 0.91 | 90 | 1012.7 |
| 20260505033925 | 8 | 316 | 0.0 | 0.0 | 0.00 | 0.91 | 0.91 | 90 | 1012.7 |
| 20260505033718 | 8 | 316 | 0.0 | 0.0 | 0.00 | 0.91 | 0.91 | 90 | 1012.7 |
| 20260505033516 | 8 | 315 | 0.0 | 0.0 | 0.00 | 0.91 | 0.91 | 90 | 1012.8 |
| 20260505033312 | 8 | 316 | 0.0 | 0.0 | 0.00 | 0.91 | 0.91 | 90 | 1012.7 |
| 20260505033108 | 8 | 315 | 0.0 | 0.0 | 0.00 | 0.91 | 0.91 | 90 | 1012.7 |
| 20260505032720 | 8 | 315 | 0.0 | 0.0 | 0.00 | 0.91 | 0.91 | 90 | 1012.6 |
| 20260505032507 | 8 | 315 | 0.0 | 0.0 | 0.00 | 0.91 | 0.91 | 90 | 1012.6 |
| 20260505032115 | 8 | 316 | 0.0 | 0.0 | 0.00 | 0.91 | 0.91 | 90 | 1012.5 |
| 20260505031906 | 8 | 316 | 0.0 | 0.0 | 0.00 | 0.91 | 0.91 | 90 | 1012.5 |
| 20260505031702 | 8 | 315 | 0.0 | 0.0 | 0.00 | 0.91 | 0.91 | 90 | 1012.6 |
| 20260505031500 | 8 | 315 | 0.0 | 0.0 | 0.00 | 0.91 | 0.91 | 90 | 1012.6 |
| 20260505031254 | 8 | 316 | 0.0 | 0.0 | 0.00 | 0.91 | 0.91 | 90 | 1012.6 |
| 20260505031052 | 8 | 315 | 0.0 | 0.0 | 0.00 | 0.91 | 0.91 | 90 | 1012.5 |
| 20260505030841 | 8 | 316 | 0.0 | 0.0 | 0.00 | 0.91 | 0.91 | 90 | 1012.5 |
| 20260505030631 | 8 | 315 | 0.0 | 0.0 | 0.00 | 0.91 | 0.91 | 90 | 1012.5 |
| 20260505030424 | 8 | 316 | 0.0 | 0.0 | 0.00 | 0.91 | 0.91 | 90 | 1012.4 |
| 20260505030212 | 8 | 315 | 0.0 | 0.0 | 0.00 | 0.91 | 0.91 | 90 | 1012.4 |
| 20260505030007 | 8 | 315 | 0.0 | 0.0 | 0.00 | 0.91 | 0.91 | 90 | 1012.3 |
| 20260505025757 | 8 | 315 | 0.0 | 0.0 | 0.00 | 0.91 | 0.91 | 90 | 1012.4 |
| 20260505025548 | 8 | 316 | 0.0 | 0.0 | 0.00 | 0.91 | 0.91 | 90 | 1012.3 |
| 20260505025343 | 8 | 315 | 0.0 | 0.0 | 0.00 | 0.91 | 0.91 | 90 | 1012.4 |
| 20260505025141 | 8 | 315 | 0.0 | 0.0 | 0.00 | 0.91 | 0.91 | 90 | 1012.4 |
| 20260505024935 | 8 | 315 | 0.0 | 0.0 | 0.00 | 0.91 | 0.91 | 90 | 1012.4 |
| 20260505024730 | 8 | 315 | 0.0 | 1.6 | 0.00 | 0.91 | 0.91 | 90 | 1012.4 |
| 20260505024525 | 8 | 315 | 0.0 | 1.6 | 0.00 | 0.91 | 0.91 | 90 | 1012.4 |
| 20260505024320 | 8 | 321 | 0.0 | 0.0 | 0.00 | 0.91 | 0.91 | 90 | 1012.3 |
| 20260505024113 | 8 | 321 | 0.0 | 0.0 | 0.00 | 0.91 | 0.91 | 90 | 1012.3 |
| 20260505023901 | 8 | 321 | 0.0 | 0.0 | 0.00 | 0.91 | 0.91 | 90 | 1012.2 |
| 20260505023652 | 8 | 321 | 0.0 | 0.0 | 0.00 | 0.91 | 0.91 | 90 | 1012.3 |
| 20260505023443 | 8 | 321 | 0.0 | 0.0 | 0.00 | 0.91 | 0.91 | 90 | 1012.3 |
| 20260505023237 | 8 | 321 | 0.0 | 0.0 | 0.00 | 0.91 | 0.91 | 90 | 1012.3 |
| 20260505023028 | 8 | 321 | 0.0 | 0.0 | 0.00 | 0.91 | 0.91 | 90 | 1012.3 |
| 20260505022822 | 8 | 321 | 0.0 | 0.0 | 0.00 | 0.91 | 0.91 | 90 | 1012.2 |
| 20260505022616 | 8 | 321 | 0.0 | 0.0 | 0.00 | 0.91 | 0.91 | 90 | 1012.2 |
| 20260505022410 | 8 | 321 | 0.0 | 0.0 | 0.00 | 0.91 | 0.91 | 90 | 1012.2 |
| 20260505022202 | 8 | 321 | 0.0 | 0.0 | 0.00 | 0.91 | 0.91 | 90 | 1012.2 |
| 20260505021807 | 8 | 321 | 0.0 | 1.6 | 0.00 | 0.91 | 0.91 | 90 | 1012.2 |
| 20260505021555 | 8 | 321 | 0.0 | 0.0 | 0.00 | 0.91 | 0.91 | 90 | 1012.2 |
| 20260505021342 | 8 | 322 | 0.0 | 0.0 | 0.00 | 0.91 | 0.91 | 90 | 1012.1 |
| 20260505021136 | 8 | 321 | 0.0 | 0.0 | 0.00 | 0.91 | 0.91 | 90 | 1012.2 |
| 20260505020923 | 8 | 321 | 0.0 | 0.0 | 0.00 | 0.91 | 0.91 | 90 | 1012.1 |
| 20260505020713 | 8 | 321 | 0.0 | 0.0 | 0.00 | 0.91 | 0.91 | 90 | 1012.2 |
| 20260505020509 | 8 | 321 | 0.0 | 0.0 | 0.00 | 0.91 | 0.91 | 90 | 1012.1 |
| 20260505020307 | 8 | 321 | 0.0 | 0.0 | 0.00 | 0.91 | 0.91 | 90 | 1012.2 |
| 20260505020103 | 8 | 321 | 0.0 | 0.0 | 0.00 | 0.91 | 0.91 | 90 | 1012.2 |
| 20260505015853 | 8 | 321 | 0.0 | 0.0 | 0.00 | 0.91 | 0.91 | 90 | 1012.2 |
| 20260505015643 | 8 | 321 | 0.0 | 0.0 | 0.00 | 0.91 | 0.91 | 90 | 1012.3 |
| 20260505015435 | 8 | 321 | 0.0 | 0.0 | 0.00 | 0.91 | 0.91 | 90 | 1012.2 |
| 20260505015233 | 8 | 321 | 0.0 | 0.0 | 0.00 | 0.91 | 0.91 | 90 | 1012.3 |
| 20260505014845 | 8 | 321 | 0.0 | 0.0 | 0.00 | 0.91 | 0.91 | 90 | 1012.3 |
| 20260505014643 | 8 | 321 | 0.0 | 0.0 | 0.00 | 0.91 | 0.91 | 90 | 1012.3 |
| 20260505014434 | 8 | 321 | 0.0 | 0.0 | 0.00 | 0.91 | 0.91 | 90 | 1012.2 |
| 20260505014223 | 8 | 321 | 0.0 | 0.0 | 0.00 | 0.91 | 0.91 | 90 | 1012.2 |
| 20260505014010 | 8 | 321 | 0.0 | 0.0 | 0.00 | 0.91 | 0.91 | 90 | 1012.3 |
| 20260505013806 | 8 | 322 | 0.0 | 0.0 | 0.00 | 0.91 | 0.91 | 90 | 1012.3 |
| 20260505013601 | 8 | 321 | 0.0 | 0.0 | 0.00 | 0.91 | 0.91 | 90 | 1012.3 |
| 20260505013357 | 8 | 322 | 0.0 | 0.0 | 0.00 | 0.91 | 0.91 | 90 | 1012.3 |
| 20260505013149 | 8 | 321 | 0.0 | 0.0 | 0.00 | 0.91 | 0.91 | 90 | 1012.3 |
| 20260505012758 | 8 | 321 | 0.0 | 0.0 | 0.00 | 0.89 | 0.89 | 90 | 1012.3 |
| 20260505012556 | 8 | 322 | 0.0 | 0.0 | 0.00 | 0.89 | 0.89 | 90 | 1012.4 |
| 20260505012352 | 8 | 322 | 0.0 | 0.0 | 0.00 | 0.89 | 0.89 | 90 | 1012.4 |
| 20260505012142 | 8 | 322 | 0.0 | 0.0 | 0.00 | 0.89 | 0.89 | 90 | 1012.4 |
| 20260505011937 | 8 | 322 | 0.0 | 0.0 | 0.00 | 0.89 | 0.89 | 90 | 1012.4 |
| 20260505011733 | 8 | 321 | 0.0 | 0.0 | 0.00 | 0.89 | 0.89 | 90 | 1012.4 |
| 20260505011529 | 8 | 322 | 0.0 | 0.0 | 0.00 | 0.89 | 0.89 | 90 | 1012.5 |
| 20260505011317 | 8 | 322 | 0.0 | 0.0 | 0.00 | 0.89 | 0.89 | 90 | 1012.5 |
| 20260505011113 | 8 | 322 | 0.0 | 0.0 | 0.00 | 0.89 | 0.89 | 90 | 1012.5 |
| 20260505010905 | 8 | 321 | 0.0 | 0.0 | 0.00 | 0.89 | 0.89 | 90 | 1012.5 |
| 20260505010659 | 8 | 322 | 0.0 | 0.0 | 0.00 | 0.89 | 0.89 | 90 | 1012.5 |
| 20260505010449 | 8 | 322 | 0.0 | 1.6 | 0.00 | 0.89 | 0.89 | 90 | 1012.5 |
| 20260505010246 | 8 | 321 | 0.0 | 0.0 | 0.00 | 0.89 | 0.89 | 90 | 1012.5 |
| 20260505010037 | 8 | 321 | 0.0 | 0.0 | 0.00 | 0.89 | 0.89 | 90 | 1012.4 |
| 20260505005829 | 8 | 321 | 0.0 | 0.0 | 0.00 | 0.89 | 0.89 | 90 | 1012.4 |
| 20260505005625 | 8 | 321 | 0.0 | 0.0 | 0.00 | 0.89 | 0.89 | 90 | 1012.5 |
| 20260505005415 | 8 | 321 | 0.0 | 0.0 | 0.00 | 0.89 | 0.89 | 90 | 1012.4 |
| 20260505005213 | 8 | 321 | 0.0 | 1.6 | 0.00 | 0.89 | 0.89 | 90 | 1012.5 |
| 20260505005000 | 8 | 321 | 0.0 | 0.0 | 0.00 | 0.89 | 0.89 | 90 | 1012.6 |
| 20260505004753 | 8 | 321 | 0.0 | 0.0 | 0.00 | 0.89 | 0.89 | 90 | 1012.6 |
| 20260505004549 | 8 | 321 | 0.0 | 0.0 | 0.00 | 0.89 | 0.89 | 90 | 1012.6 |
| 20260505004157 | 8 | 321 | 0.0 | 0.0 | 0.00 | 0.89 | 0.89 | 90 | 1012.6 |
| 20260505003948 | 8 | 321 | 0.0 | 0.0 | 0.00 | 0.89 | 0.89 | 90 | 1012.6 |
| 20260505003743 | 8 | 321 | 0.0 | 0.0 | 0.10 | 0.89 | 0.89 | 90 | 1012.6 |
| 20260505003538 | 8 | 321 | 0.0 | 0.0 | 0.13 | 0.89 | 0.89 | 90 | 1012.6 |
| 20260505003335 | 8 | 321 | 0.0 | 0.0 | 0.13 | 0.89 | 0.89 | 90 | 1012.6 |
| 20260505003134 | 8 | 321 | 0.0 | 1.6 | 0.15 | 0.89 | 0.89 | 90 | 1012.5 |
| 20260505002927 | 8 | 321 | 0.0 | 0.0 | 0.15 | 0.89 | 0.89 | 90 | 1012.5 |
| 20260505002532 | 8 | 321 | 0.0 | 0.0 | 0.15 | 0.89 | 0.89 | 90 | 1012.5 |
| 20260505002321 | 8 | 321 | 0.0 | 0.0 | 0.15 | 0.86 | 0.89 | 90 | 1012.6 |
| 20260505002108 | 8 | 321 | 0.0 | 0.0 | 0.00 | 0.86 | 0.84 | 90 | 1012.7 |
| 20260505001903 | 8 | 321 | 0.0 | 0.0 | 0.00 | 0.86 | 0.84 | 90 | 1012.5 |
| 20260505001507 | 8 | 321 | 0.0 | 0.0 | 0.00 | 0.86 | 0.84 | 90 | 1012.6 |
| 20260505001113 | 8 | 321 | 0.0 | 0.0 | 0.00 | 0.84 | 0.84 | 90 | 1012.6 |
| 20260505000721 | 8 | 321 | 0.0 | 3.2 | 0.00 | 0.84 | 0.84 | 90 | 1012.6 |
| 20260505000517 | 8 | 318 | 0.0 | 3.2 | 0.00 | 0.84 | 0.84 | 90 | 1012.5 |
| 20260505000315 | 8 | 318 | 0.0 | 3.2 | 0.00 | 0.84 | 0.84 | 90 | 1012.5 |
| 20260505000104 | 8 | 317 | 0.0 | 3.2 | 0.00 | 0.84 | 0.84 | 90 | 1012.5 |
| 20260504235706 | 8 | 327 | 0.0 | 1.6 | 0.00 | 0.84 | 0.84 | 90 | 1012.5 |
| 20260504235311 | 8 | 328 | 0.0 | 4.8 | 0.00 | 0.84 | 0.84 | 90 | 1012.5 |
| 20260504235108 | 8 | 327 | 0.0 | 3.2 | 0.00 | 0.84 | 0.84 | 90 | 1012.5 |
| 20260504234859 | 8 | 328 | 0.0 | 0.0 | 0.00 | 0.81 | 0.81 | 90 | 1012.5 |
| 20260504234656 | 8 | 328 | 0.0 | 0.0 | 0.00 | 0.81 | 0.81 | 90 | 1012.5 |
| 20260504234447 | 8 | 329 | 0.0 | 0.0 | 0.10 | 0.81 | 0.81 | 90 | 1012.5 |
| 20260504234237 | 8 | 329 | 0.0 | 0.0 | 0.13 | 0.81 | 0.81 | 90 | 1012.5 |
| 20260504234024 | 8 | 329 | 0.0 | 0.0 | 0.15 | 0.81 | 0.81 | 90 | 1012.4 |
| 20260504233814 | 8 | 329 | 0.0 | 1.6 | 0.15 | 0.81 | 0.81 | 90 | 1012.5 |
| 20260504233602 | 8 | 329 | 0.0 | 1.6 | 0.15 | 0.81 | 0.81 | 90 | 1012.4 |
| 20260504233356 | 8 | 328 | 0.0 | 0.0 | 0.15 | 0.81 | 0.81 | 90 | 1012.4 |
| 20260504233153 | 8 | 328 | 0.0 | 4.8 | 0.15 | 0.81 | 0.81 | 90 | 1012.4 |
| 20260504232949 | 8 | 306 | 0.0 | 1.6 | 0.15 | 0.79 | 0.79 | 90 | 1012.3 |
| 20260504232602 | 8 | 306 | 0.0 | 0.0 | 0.00 | 0.79 | 0.79 | 90 | 1012.4 |
| 20260504232354 | 8 | 306 | 0.0 | 1.6 | 0.00 | 0.79 | 0.79 | 89 | 1012.4 |
| 20260504232151 | 8 | 306 | 0.0 | 1.6 | 0.00 | 0.79 | 0.79 | 89 | 1012.6 |
| 20260504231948 | 8 | 305 | 0.0 | 0.0 | 0.00 | 0.76 | 0.74 | 89 | 1012.6 |
| 20260504231737 | 8 | 305 | 0.0 | 3.2 | 0.00 | 0.76 | 0.74 | 89 | 1012.6 |
| 20260504231350 | 8 | 305 | 0.0 | 3.2 | 0.00 | 0.76 | 0.74 | 89 | 1012.6 |
| 20260504230957 | 8 | 306 | 0.0 | 0.0 | 0.00 | 0.76 | 0.74 | 89 | 1012.5 |
| 20260504230746 | 8 | 306 | 0.0 | 0.0 | 0.00 | 0.76 | 0.74 | 89 | 1012.4 |
| 20260504230544 | 8 | 306 | 0.0 | 0.0 | 0.00 | 0.76 | 0.74 | 89 | 1012.5 |
| 20260504230334 | 8 | 306 | 0.0 | 0.0 | 0.00 | 0.76 | 0.74 | 89 | 1012.5 |
| 20260504230129 | 8 | 306 | 0.0 | 4.8 | 0.00 | 0.76 | 0.74 | 89 | 1012.5 |
| 20260504225924 | 8 | 212 | 0.0 | 0.0 | 0.00 | 0.76 | 0.74 | 89 | 1012.5 |
| 20260504225713 | 8 | 212 | 0.0 | 1.6 | 0.10 | 0.74 | 0.74 | 89 | 1012.5 |
| 20260504225511 | 8 | 211 | 0.0 | 0.0 | 0.10 | 0.74 | 0.74 | 89 | 1012.6 |
| 20260504224936 | 8 | 211 | 0.0 | 1.6 | 0.13 | 0.74 | 0.74 | 89 | 1012.6 |
| 20260504224730 | 8 | 211 | 0.0 | 0.0 | 0.13 | 0.74 | 0.74 | 89 | 1012.5 |
| 20260504224343 | 8 | 211 | 0.0 | 1.6 | 0.13 | 0.74 | 0.74 | 89 | 1012.5 |
| 20260504223809 | 8 | 211 | 0.0 | 0.0 | 0.13 | 0.71 | 0.71 | 90 | 1012.5 |
| 20260504223558 | 8 | 211 | 0.0 | 3.2 | 0.13 | 0.71 | 0.71 | 90 | 1012.4 |
| 20260504223348 | 8 | 212 | 0.0 | 0.0 | 0.13 | 0.71 | 0.71 | 89 | 1012.4 |
| 20260504222950 | 8 | 212 | 0.0 | 0.0 | 0.13 | 0.71 | 0.71 | 89 | 1012.5 |
| 20260504222740 | 8 | 211 | 0.0 | 0.0 | 0.13 | 0.69 | 0.66 | 90 | 1012.5 |
| 20260504222530 | 8 | 212 | 0.0 | 0.0 | 0.13 | 0.69 | 0.66 | 89 | 1012.6 |
| 20260504222138 | 8 | 212 | 0.0 | 0.0 | 0.13 | 0.69 | 0.66 | 90 | 1012.6 |
| 20260504221932 | 8 | 211 | 0.0 | 0.0 | 0.13 | 0.69 | 0.66 | 89 | 1012.6 |